Theta_e
306 306 305 304 303 302 301 300 300 300 300 300 300 300 300 298 297 296 297 297 297 298 298 298 298 298 298 297 297 297 295 294 292 292 291 290 289 289 289 289 289 288 288
302 302 302 302 302 301 301 300 300 300 300 300 300 301 300 300 298 297 296 296 296 296 297 297 297 297 297 297 296 295 293 292 291 290 290 289 288 288 288 288 288 288 288
302 301 301 301 301 301 301 300 300 300 300 300 301 301 301 300 300 298 296 295 295 295 296 296 296 296 296 296 294 293 292 291 290 289 289 288 288 288 288 287 287 287 287
300 301 301 301 301 301 301 301 301 300 301 300 300 300 300 300 300 299 297 296 295 294 295 295 295 295 294 293 292 294 294 291 289 288 288 288 288 287 287 287 287 287 286
295 297 298 299 299 299 299 299 299 299 299 299 300 300 300 300 299 298 298 297 295 294 294 294 294 294 293 292 297 297 289 288 288 288 287 287 287 287 286 286 286 286 286
291 291 292 294 295 296 296 296 297 297 297 297 298 298 299 300 300 298 297 295 294 293 294 294 293 292 292 296 295 288 292 287 287 287 287 287 287 286 286 286 286 285 286
290 290 290 290 291 294 296 295 295 295 295 295 296 297 297 299 299 297 296 294 293 293 293 292 292 292 294 291 289 291 286 286 286 286 286 286 286 286 286 285 285 285 284
290 290 290 290 289 289 291 294 295 294 294 293 293 293 294 295 296 296 296 296 294 294 294 294 293 293 293 290 290 288 287 286 286 285 285 285 285 285 285 284 284 284 284
289 289 289 289 289 289 289 290 292 293 294 293 292 292 292 292 294 294 293 293 293 293 293 292 292 292 291 290 288 287 286 285 285 284 284 284 284 284 284 284 284 283 285
288 288 288 288 288 288 288 289 291 290 291 291 292 292 292 292 293 292 291 292 292 292 291 291 291 291 290 287 285 285 285 285 285 284 284 283 283 283 283 283 283 283 283
288 288 288 288 288 288 288 289 290 290 290 290 291 291 291 291 291 291 290 290 290 290 290 290 290 290 287 285 285 285 285 284 283 283 283 283 283 283 283 283 283 282 282
287 287 288 288 288 288 289 289 289 289 289 289 289 289 289 290 290 290 290 289 289 289 289 289 289 288 285 285 285 284 283 283 283 283 283 283 283 283 282 282 282 281 281
286 287 287 288 288 288 288 288 288 288 288 288 288 288 288 288 288 288 288 288 288 288 288 287 287 286 286 285 285 285 283 284 283 283 283 283 283 282 282 282 281 281 281
285 285 285 286 287 287 287 287 287 287 286 286 286 286 286 287 287 287 287 287 287 287 286 286 285 284 283 284 284 285 285 284 284 283 283 283 283 282 281 281 281 281 280
282 283 283 284 285 285 286 285 285 285 285 285 285 285 285 286 286 286 286 286 287 286 286 285 283 282 283 285 284 285 284 284 284 283 283 283 282 281 281 280 280 280 280
280 281 281 282 283 283 283 284 284 283 283 284 284 284 284 284 285 285 285 285 286 286 286 285 284 284 283 283 284 283 283 283 283 283 283 282 281 281 280 280 280 280 280
278 279 279 280 280 280 281 281 281 282 282 282 282 283 283 284 284 284 284 284 285 285 284 285 284 284 282 282 282 282 283 283 283 282 281 281 280 280 280 280 280 280 280
276 276 277 277 277 278 278 278 278 279 279 280 282 282 283 283 283 283 283 284 283 284 284 284 284 284 284 283 282 282 282 282 282 281 280 280 280 280 280 279 279 279 279
273 274 274 274 275 275 275 276 276 277 277 278 279 281 282 282 283 283 283 283 283 283 283 283 283 284 284 283 282 282 282 281 281 280 280 279 279 279 279 279 279 279 279
271 272 272 271 273 273 273 274 276 276 277 277 277 279 280 281 282 283 282 283 283 283 282 283 283 282 283 283 283 282 281 280 280 280 280 279 278 278 278 279 279 279 279
269 270 270 271 271 271 272 273 274 275 276 276 277 277 278 279 280 281 283 282 283 283 282 282 282 283 283 283 282 282 281 280 280 280 280 280 279 278 278 278 278 278 278
268 269 269 269 270 270 270 272 273 274 275 275 275 276 276 277 278 278 279 279 280 281 282 282 282 282 282 282 282 281 281 281 281 280 280 280 279 279 278 278 278 278 277
268 268 268 269 269 269 269 270 271 271 272 273 274 274 275 275 276 276 276 277 278 278 279 280 281 281 281 281 281 281 281 281 281 280 279 279 279 279 278 278 278 277 277
268 268 268 267 267 267 267 268 268 269 269 270 271 271 272 273 273 273 274 274 275 276 276 277 278 278 278 279 279 279 280 280 279 279 278 278 278 278 277 277 277 276 276
268 268 268 268 267 267 266 266 266 266 267 268 268 269 270 270 271 271 271 272 272 273 273 274 274 275 275 276 276 276 277 277 277 277 277 276 276 276 276 276 275 275 275
268 267 267 267 267 266 266 266 266 266 266 266 266 266 267 268 269 269 270 270 271 271 271 272 272 272 273 273 274 274 274 274 274 274 274 274 274 274 274 274 274 274 274
Wind_Speed
15 16 16 16 16 16 16 17 17 17 17 19 19 20 21 22 24 25 25 25 25 24 23 23 21 19 18 17 16 15 14 14 14 13 13 11 9 7 6 6 7 8 10
12 13 14 14 15 15 15 16 17 17 18 19 21 22 22 23 24 25 26 26 26 26 25 24 23 22 20 18 17 16 15 14 14 13 14 12 9 7 6 6 6 8 9
8 9 10 11 12 14 15 17 17 18 19 20 22 23 24 24 26 26 26 27 27 27 26 25 25 23 22 20 19 17 15 13 15 14 14 12 10 8 7 6 6 7 8
7 8 9 9 10 11 11 12 13 16 18 20 23 24 26 26 27 28 28 28 28 28 28 27 26 25 23 21 18 16 16 19 16 15 14 13 11 9 8 6 6 7 6
5 8 10 11 12 13 14 15 17 18 19 20 22 24 26 29 30 29 29 29 30 30 30 29 28 27 26 24 21 20 20 18 18 17 16 14 12 10 8 6 6 5 6
4 7 10 13 14 15 16 18 20 19 20 21 23 23 25 28 30 30 30 30 31 32 32 32 31 29 28 26 23 20 19 20 19 17 16 15 13 11 9 7 5 3 2
4 6 7 10 14 18 20 21 19 21 22 24 26 25 26 27 29 32 33 33 33 33 33 32 33 32 31 24 25 21 21 20 18 16 15 14 13 11 9 7 5 4 5
11 12 14 14 15 16 20 23 23 24 23 22 25 25 25 25 25 32 36 37 38 37 36 35 32 32 30 27 23 21 20 21 19 17 16 14 13 12 9 7 5 4 5
14 15 17 19 21 21 21 22 24 26 25 23 25 24 23 24 23 27 31 32 32 34 33 31 30 29 27 26 21 20 22 21 17 16 15 13 12 10 8 6 3 3 2
16 17 17 18 20 21 22 22 21 22 25 25 27 27 27 24 21 23 28 32 30 30 30 30 30 30 28 22 25 25 23 20 21 18 16 13 11 9 6 5 5 4 4
17 18 18 18 19 20 21 21 22 22 23 25 26 27 27 26 25 24 28 32 31 29 30 31 31 31 27 26 27 25 23 23 20 18 16 14 12 10 8 8 7 7 5
16 18 19 19 20 20 20 20 21 22 23 25 27 28 29 29 29 28 28 33 33 32 31 31 31 29 27 26 25 24 22 21 20 19 16 14 13 12 11 10 9 7 5
15 16 17 18 19 20 21 20 21 21 23 25 27 28 30 31 31 30 30 29 33 35 30 29 30 28 26 23 23 22 22 21 22 19 17 15 15 14 13 11 10 8 6
14 15 16 17 18 19 20 20 20 21 22 23 25 26 27 29 30 30 30 33 27 28 26 25 24 21 23 24 24 26 23 23 22 19 17 15 17 15 14 13 11 9 7
14 15 16 17 17 19 20 20 20 20 20 22 24 24 25 28 29 28 29 32 31 29 24 26 26 28 27 27 28 24 25 26 24 21 20 19 17 16 16 14 13 10 9
14 15 15 16 17 17 19 20 20 19 20 21 23 24 26 26 27 27 27 29 34 23 30 27 29 29 28 31 32 32 30 27 26 24 21 19 19 18 16 15 13 11 10
17 17 18 16 16 17 17 17 19 18 19 21 19 21 22 24 24 25 25 28 30 31 23 29 27 26 29 31 28 29 30 29 26 23 21 21 20 19 18 17 15 13 11
16 16 17 17 17 17 17 17 17 17 17 17 21 21 23 22 22 23 23 23 25 28 30 29 30 29 27 28 30 30 30 29 26 23 22 22 21 21 20 18 17 15 13
16 15 13 17 17 14 14 15 14 16 16 16 18 20 23 22 21 20 22 25 27 27 29 33 33 30 30 27 27 27 29 28 25 23 22 22 22 21 21 19 17 16 14
15 15 13 15 14 13 12 11 11 13 14 13 14 19 19 20 21 23 20 23 26 30 28 32 33 33 32 29 29 26 28 26 26 24 23 21 20 21 21 20 18 17 16
16 15 14 14 12 10 11 10 10 9 10 11 10 12 14 21 20 18 21 27 26 27 29 28 29 25 29 27 26 27 29 28 27 25 23 21 20 21 21 20 19 19 19
13 12 12 11 9 8 9 9 9 8 7 7 6 8 10 11 15 19 19 16 18 25 25 28 27 29 26 29 29 29 30 31 31 25 24 23 22 22 22 22 22 22 22
10 10 8 7 7 6 7 6 6 5 5 6 7 9 8 8 10 13 15 17 18 18 16 21 26 29 28 28 28 29 28 31 32 28 27 26 25 24 24 24 24 24 24
8 8 7 7 8 9 9 8 8 7 6 5 5 5 6 7 7 9 10 12 13 15 17 19 19 21 24 27 29 31 32 33 33 30 28 27 27 26 26 26 26 26 26
13 13 13 11 11 11 10 10 11 12 12 12 11 10 10 9 10 11 11 12 12 12 14 15 17 19 20 22 24 26 27 27 28 28 28 29 29 29 29 29 28 25 25
10 10 12 13 13 14 15 16 17 16 15 14 14 15 16 16 17 17 17 17 17 17 18 19 19 19 20 22 23 24 25 26 27 28 28 29 30 31 31 31 31 30 29
Wind_Direction
214 222 228 233 238 243 245 243 244 247 248 247 247 247 246 245 243 242 241 241 240 241 241 241 242 241 241 240 238 236 234 233 235 236 236 243 263 283 302 315 326 334 336
217 225 231 236 241 246 247 246 247 251 253 252 250 249 250 250 248 245 244 243 242 241 240 240 239 238 236 235 235 233 233 232 234 235 234 238 247 260 278 297 316 325 331
209 222 231 237 241 244 244 243 245 249 252 252 251 250 253 255 251 247 245 243 241 240 239 237 237 234 232 230 231 232 233 240 240 237 236 239 243 249 264 285 304 318 324
218 229 236 240 241 240 242 248 256 258 257 255 254 253 252 254 251 247 245 243 240 238 236 234 233 233 231 226 221 234 245 241 235 232 232 232 235 241 249 266 285 301 313
232 242 247 250 250 249 252 251 256 263 265 265 263 260 256 251 246 245 245 245 243 240 236 233 231 229 227 224 238 250 237 235 233 225 221 223 228 234 238 252 268 296 305
267 266 263 265 265 262 259 258 253 257 260 261 262 263 259 255 250 246 244 244 241 238 235 232 229 226 228 245 244 224 235 238 232 227 225 225 230 234 243 254 269 285 271
304 304 296 282 270 262 256 256 254 258 260 263 265 261 259 256 249 243 241 240 239 237 234 231 229 229 243 228 223 231 230 228 228 229 231 228 227 229 234 244 258 283 296
308 308 307 303 298 287 273 260 255 254 256 265 272 264 259 258 261 253 246 242 240 241 245 249 244 242 235 229 227 221 230 232 227 224 223 224 222 223 223 231 248 279 303
291 291 294 297 297 295 288 278 265 257 253 255 265 265 268 263 255 256 249 249 246 249 243 242 243 240 232 226 217 219 220 218 220 222 219 216 219 224 222 232 256 288 283
279 282 289 296 297 295 294 291 282 272 262 257 257 260 261 266 255 249 243 250 246 242 241 241 237 231 225 211 217 218 218 222 226 216 213 215 215 221 221 228 237 237 260
273 276 279 284 288 287 290 289 282 274 269 265 263 260 262 260 256 249 237 238 242 241 241 239 236 230 211 212 218 220 223 227 217 214 214 215 216 224 229 227 225 231 247
285 285 282 281 280 281 282 281 277 275 271 267 265 263 260 256 254 250 240 237 240 243 244 241 234 220 206 207 216 219 216 215 212 211 208 208 213 221 227 223 227 237 241
290 291 290 285 278 277 277 276 273 273 271 269 266 264 262 260 257 252 246 237 240 239 241 237 228 219 213 209 209 221 210 208 212 210 207 209 215 221 221 221 228 227 233
297 298 297 295 288 279 273 273 272 272 273 271 266 264 261 259 257 252 242 220 221 230 228 218 208 209 210 211 201 216 217 212 217 212 206 209 217 217 215 219 219 215 222
306 303 301 296 291 285 279 275 272 269 268 271 271 268 262 262 260 255 245 231 216 220 221 215 204 203 200 203 201 201 214 215 217 211 212 219 220 216 215 216 214 212 212
311 308 306 303 298 291 285 280 271 266 269 267 265 263 264 263 260 255 243 232 215 209 216 213 213 213 207 210 214 214 217 219 220 219 221 223 220 214 216 216 214 214 217
312 311 307 303 297 292 288 285 284 274 267 261 260 257 261 260 253 248 239 231 222 213 220 219 215 215 215 216 216 218 212 213 220 225 225 222 217 216 217 218 218 219 223
306 305 302 302 300 296 288 281 279 277 273 266 257 252 247 249 252 238 232 225 222 217 214 224 220 221 221 222 222 221 219 222 225 225 225 221 217 217 217 218 219 223 228
301 299 301 301 302 304 295 287 283 278 272 269 263 249 238 239 240 240 226 222 221 221 218 223 230 232 229 228 225 222 223 221 223 225 224 224 222 219 219 222 226 232 236
297 297 301 303 303 301 302 298 282 281 279 271 264 252 236 233 230 231 229 222 223 226 227 225 232 233 234 231 224 224 221 221 224 224 225 225 224 225 225 227 231 235 239
303 301 301 299 301 310 297 292 288 272 274 275 270 262 250 239 233 228 217 218 226 228 232 232 231 230 230 226 224 224 224 222 224 227 228 228 228 230 231 234 236 240 244
299 299 304 305 304 299 303 298 287 273 255 227 221 237 237 233 240 242 234 226 220 224 223 224 229 229 230 230 226 225 225 224 221 228 229 231 233 236 237 239 240 245 250
289 302 295 298 305 311 314 310 305 296 271 249 240 243 248 236 220 222 228 229 227 223 215 216 218 221 225 227 226 224 221 220 221 228 232 235 238 241 245 247 247 248 249
263 291 280 291 311 313 311 307 304 302 298 283 267 249 234 226 222 219 216 215 212 211 212 213 210 209 210 210 211 211 211 214 218 224 232 237 241 244 247 250 250 251 252
287 275 263 268 294 300 305 305 303 296 288 282 277 271 263 253 247 243 240 237 234 230 227 225 225 225 224 223 223 223 223 223 226 231 237 242 245 248 249 249 249 248 249
256 261 252 263 282 293 296 299 303 296 286 281 277 272 268 265 263 261 258 254 252 252 251 250 248 245 243 242 243 244 244 242 243 244 245 245 246 247 248 248 248 248 247